Location: Veytaux
(46.4185°N, 6.9320°E)
Time: 08:24:00
(UTC+00:00)

Cosmos 1943 Rocket - Pass Details

Date: 27 May 2022
Orbit: 810 x 845 km, 71.0° (Epoch: 01 July)

Event Time Altitude Azimuth Distance (km) Brightness Sun altitude
Rises 01:06:12 0° 333° (NNW) 3,413 5.9 -18.9°
Reaches altitude 10° 01:08:39 10° 333° (NNW) 2,476 5.1 -18.7°
Maximum altitude 01:14:22 90° 255° (WSW) 852 2.1 -18.3°
Enters shadow 01:19:15 14° 155° (SSE) 2,166 4.0 -17.9°
